Regional Weather Roundup
Issued by NWS

Home | Current Version | Previous Version | Text Only | Print | Product List | Glossary Off
Versions: 1 2 3 4 5 6 7 8 9 10 11 12 13 14 15 16 17 18 19 20 21 22 23 24 25 26 27 28 29 30 31 32 33 34 35 36 37 38 39 40 41 42 43 44 45 46 47 48 49 50

000
ASUS45 KBOU 251107
RWRCO

WEATHER ROUNDUP FOR COLORADO
NATIONAL WEATHER SERVICE DENVER/BOULDER CO
500 AM MDT FRI JUL 25 2014

NOTE: "FAIR" INDICATES FEW OR NO CLOUDS BELOW 12000 FEET WITH NO
SIGNIFICANT WEATHER AND/OR OBSTRUCTIONS TO VISIBILITY.

COZ001>005-013-030-031-251200-
...NORTHWEST COLORADO...

CITY           SKY/WX    TMP DP  RH WIND       PRES   REMARKS
CRAIG          MOCLDY    54  54 100 NE7       30.21F
HAYDEN         MOCLDY    61  46  59 SE16      30.25R
MEEKER         PTCLDY    56  50  80 E7        30.22S
MOUNT WERNER   NOT AVBL
STEAMBOAT SPGS MOCLDY    60  50  71 W7        30.26F
WALDEN         MOCLDY    59  41  51 SW10      30.37R
$$

COZ006>008-011-251200-
...WEST CENTRAL VALLEYS...

CITY           SKY/WX    TMP DP  RH WIND       PRES   REMARKS
GRAND JUNCTION TSTM      73  53  49 NE14      30.12S
MONTROSE       PTCLDY    60  51  72 E3        30.22S
EAGLE          PTCLDY    54  54 100 CALM      30.33R
RIFLE          PTCLDY    63  50  62 CALM      30.19R
DELTA          PTCLDY    67  54  63 E6        30.18R
NUCLA          PTCLDY    63  50  63 SE8       30.25S
$$

COZ017>023-064>068-251200-
...SOUTHWEST COLORADO...

CITY           SKY/WX    TMP DP  RH WIND       PRES   REMARKS
DURANGO        CLOUDY    65  51  60 CALM      30.27R
CORTEZ         PTCLDY    69  52  54 NE7       30.22R
PAGOSA SPRINGS CLOUDY    60  49  67 CALM      30.35F
TELLURIDE      MOCLDY    54  50  87 E5        30.46S
WOLF CREEK PAS NOT AVBL
$$

COZ009-010-012-014-032>034-037-058>063-251200-
...CENTRAL COLORADO...

CITY           SKY/WX    TMP DP  RH WIND       PRES   REMARKS
ASPEN          PTCLDY    50  46  86 SW5       30.35S
BUENA VISTA    MOCLDY    59  45  60 NW7       30.35S
COPPER MTN     MOCLDY    54  37  54 SW6       30.67S
BERTHOUD PASS  FAIR      45  32  61 NW18      30.69S
COTTONWOOD PAS MOCLDY    61  41  48 W10G22    30.48S
GUNNISON       PTCLDY    54  46  76 CALM      30.40S
KREMMLING      MOCLDY    52  43  71 SE8       30.36R
LEADVILLE      MOCLDY    46  40  79 VRB5      30.49F
MONARCH PASS   PTCLDY    46  41  81 W28       30.74S
SALIDA         MOCLDY   N/A N/A N/A N9        30.39R
SUNLIGHT       PTCLDY    54  46  76 SW3       30.58R
WILKERSON PASS MOCLDY    52  37  58 W13G20    30.61R
$$

COZ069>075-251200-
...SAN LUIS VALLEY/SANGRE DE CRISTO MOUNTAINS...

CITY           SKY/WX    TMP DP  RH WIND       PRES   REMARKS
ALAMOSA        MOCLDY    60  53  77 CALM      30.34R
LA VETA PASS   CLOUDY    54  43  66 SW14G23   30.47F
SAGUACHE       PTCLDY    55  50  82 NE8       30.38S
$$

COZ035-036-038>040-251200-
...NORTHERN COLORADO FRONT RANGE...

CITY           SKY/WX    TMP DP  RH WIND       PRES   REMARKS
DENVER INTL AP MOCLDY    74  48  39 SW12      30.06R
DMNS CITY PARK   N/A     71  50  47 S2        30.06S
AURORA         CLOUDY    71  50  48 S7        30.10R
FRONT RANGE AP NOT AVBL
ERIE MUNI ARPT MOCLDY    65  49  55 CALM      30.04R
BOULDER MUN AP MOCLDY    72  41  33 CALM      30.05R
CENTENNIAL     CLOUDY    72  46  39 SW7       30.11R
BROOMFIELD     MOCLDY    72  50  46 CALM      30.09R
FORT COLLINS   PTCLDY    66  55  68 N7        30.04R
LONGMONT       PTCLDY    68  53  58 CALM      30.05R
$$

COZ041-046-047-076>085-087-088-251200-
...PIKES PEAK/PALMER DIVIDE AND SOUTHERN FOOTHILLS...

CITY           SKY/WX    TMP DP  RH WIND       PRES   REMARKS
COLO. SPRINGS  MOCLDY    67  50  54 NW6       30.15S
A. F. ACADEMY  MOCLDY    64  52  64 NE7       30.18R
ELLICOTT       PTCLDY    62  51  67 N7        30.12S
FALCON         PTCLDY    67  47  48 NW7       30.20S
FORT CARSON    PTCLDY    65  51  59 NW14      30.11S
LIMON          PTCLDY    57  55  93 CALM      30.07R
MONUMENT HILL  MOCLDY    63  45  51 SW8       30.21R
TRINIDAD       CLEAR     66  47  50 W9        30.13F
$$

COZ042>045-048>051-090-091-251200-
...NORTHEAST COLORADO...

CITY           SKY/WX    TMP DP  RH WIND       PRES   REMARKS
GREELEY ARPT   PTCLDY    61  52  72 NW5       30.02R
AKRON          PTCLDY    70  52  52 W14       29.99R
BURLINGTON     PTCLDY    67  55  65 W9        29.95S
WRAY             N/A     64  57  77 SW8       29.90R
STERLING       PTCLDY    63  61  94 S7        29.94R
HOLYOKE        CLEAR     64  57  77 W9        29.90S
FORT MORGAN    PTCLDY    62  53  72 W6        29.99S
$$

COZ086-089-092>099-251200-
...SOUTHEAST COLORADO...

CITY           SKY/WX    TMP DP  RH WIND       PRES   REMARKS
PUEBLO         CLEAR     76  48  37 W14       30.02R
LA JUNTA       PTCLDY    76  50  40 SW9       29.99S
LAMAR          PTCLDY    72  54  53 W9        29.93R
SPRINGFIELD      N/A     69  49  48 SW10      30.02S
$$


USA.gov is the U.S. government's official web portal to all federal, state and local government web resources and services.